Theta_e
311 312 314 315 315 314 314 316 316 316 316 316 316 316 316 315 315 315 319 321 320 320 320 319 320 321 320 321 325 321 321 323 318 317 316 319 317 319 318 316 318 317 319 318 316 319 321 316 318 318 317 317 316 315
310 311 312 313 314 314 314 314 315 315 315 315 316 316 315 315 315 314 317 319 319 319 320 320 320 319 318 318 320 320 319 319 319 320 315 316 315 316 312 317 313 316 316 318 317 318 316 316 316 316 314 316 315 314
306 308 309 310 311 312 313 313 314 313 313 314 314 315 315 315 315 314 315 317 317 306 316 317 319 317 317 317 318 321 322 318 318 319 319 311 313 316 316 316 316 315 314 316 315 314 315 315 315 314 314 313 312 312
303 304 305 307 309 310 311 313 313 314 314 313 313 313 313 313 314 314 313 314 315 308 304 313 314 316 316 316 317 317 318 317 317 318 313 309 310 312 314 314 315 314 314 314 313 314 314 314 314 314 313 312 311 310
301 302 303 304 305 307 309 310 311 312 313 313 314 314 313 312 313 313 313 313 314 314 309 308 309 313 314 315 316 316 317 318 318 314 308 311 314 312 314 313 313 313 313 314 315 314 314 314 314 313 311 311 308 307
300 301 302 303 304 305 306 307 309 310 311 312 313 314 314 314 312 310 307 310 311 314 307 307 308 309 312 313 314 315 317 318 318 317 310 313 313 309 310 314 313 313 312 313 314 313 313 313 311 310 309 308 305 303
300 301 302 303 303 303 304 306 307 308 309 310 311 312 313 313 311 308 306 307 309 310 300 309 310 305 307 309 312 314 314 316 316 314 310 308 308 311 306 314 313 313 312 311 311 311 310 309 311 308 306 304 302 302
300 301 302 302 302 301 302 303 305 306 307 308 310 311 311 308 305 304 304 306 308 307 301 308 305 305 305 310 311 308 310 307 306 308 305 307 309 306 310 312 311 311 310 310 309 309 308 306 305 303 302 302 302 301
300 300 301 301 301 301 301 301 302 303 304 305 306 305 304 302 301 301 302 303 303 303 303 300 306 310 306 307 303 303 303 305 305 306 309 309 311 312 311 311 310 310 309 308 307 304 303 303 302 302 302 301 301 300
300 300 301 301 300 300 301 301 301 302 302 301 302 301 299 300 300 301 300 298 296 295 296 301 304 310 308 305 305 305 302 304 308 308 309 311 311 310 310 309 308 306 304 303 304 303 302 302 301 301 301 301 300 297
299 300 300 300 300 299 300 301 301 300 301 302 302 300 301 300 302 301 301 300 299 302 299 302 304 308 306 306 305 302 304 305 309 308 311 311 310 308 307 306 304 302 302 301 301 300 300 301 300 300 300 300 297 295
299 299 300 300 300 299 299 300 299 300 301 302 302 300 300 302 303 303 303 303 303 305 305 305 305 304 303 305 306 303 305 305 305 306 306 307 307 305 304 303 301 301 300 300 299 299 298 298 299 299 299 299 297 295
300 300 300 299 298 298 298 299 298 299 300 301 299 301 301 302 302 302 304 306 306 305 301 303 304 302 302 300 302 301 305 304 303 306 306 307 306 305 302 301 300 299 298 298 297 296 297 298 298 295 294 294 293 293
299 299 298 297 297 297 297 297 297 299 300 301 299 300 301 300 300 302 303 302 299 300 302 303 302 304 301 300 300 301 303 305 305 305 306 307 303 301 300 300 299 298 295 295 296 297 297 296 296 294 293 292 291 289
297 296 296 296 296 296 295 295 297 298 297 298 298 299 300 300 301 298 300 300 299 299 301 301 301 301 301 300 300 302 301 302 303 304 306 304 303 301 300 300 298 297 294 294 296 296 296 296 292 292 293 291 288 288
295 295 295 295 294 294 294 296 297 297 294 296 295 298 299 301 299 298 297 300 300 299 298 300 299 297 297 299 299 300 301 300 302 306 303 300 300 300 298 296 297 297 296 296 296 296 296 296 293 293 293 291 289 288
293 294 294 294 293 292 294 295 295 294 296 294 296 298 299 300 299 300 297 298 299 297 298 298 297 297 298 299 298 298 300 302 302 301 299 299 298 298 296 296 296 296 296 296 296 296 296 295 294 292 291 290 288 288
294 294 293 293 292 294 293 295 293 294 294 295 295 296 295 295 296 297 296 297 298 297 295 296 296 296 296 296 297 299 300 300 299 298 298 297 296 296 296 296 295 295 296 296 295 295 294 293 293 292 290 289 290 290
294 293 292 292 293 294 293 293 294 294 295 295 295 295 296 298 297 296 297 296 296 295 296 296 296 296 297 297 298 298 298 298 298 297 296 296 295 295 294 294 294 295 295 295 296 294 293 293 292 291 290 291 290 291
293 291 292 293 293 293 294 294 293 294 295 295 294 295 296 295 297 297 295 294 296 295 295 294 295 296 297 297 297 297 296 296 296 296 296 295 295 295 295 294 295 295 295 295 294 292 292 291 290 290 290 291 291 292
292 291 292 292 293 294 294 292 292 292 293 294 294 295 295 297 297 297 294 295 294 294 294 294 295 295 295 295 295 295 295 295 296 296 295 295 295 294 294 294 294 294 295 294 292 292 291 291 291 290 290 290 291 290
293 291 291 292 291 291 292 292 293 294 293 293 294 294 295 295 296 296 295 295 295 295 295 295 295 296 296 296 296 295 295 294 294 294 293 294 295 295 295 294 294 294 294 293 292 292 292 291 291 291 289 289 288 287
292 292 291 291 291 291 293 293 294 293 293 293 293 293 294 294 295 294 295 295 295 295 295 295 295 295 295 294 294 293 293 293 294 294 294 295 294 294 294 293 293 292 292 292 292 292 291 292 291 289 288 288 287 287
291 291 293 292 292 293 293 293 293 294 294 293 294 293 293 295 295 294 294 295 295 295 295 295 295 295 295 294 295 294 294 294 294 295 294 294 294 293 292 292 292 291 291 292 292 292 291 290 289 287 287 287 287 287
292 293 293 293 293 293 293 293 293 293 293 293 294 293 293 295 293 293 293 294 295 295 296 296 295 295 295 295 295 294 294 294 294 294 293 292 291 290 291 292 292 292 292 291 291 290 290 289 288 287 287 287 287 287
293 293 292 293 294 293 293 292 293 293 294 293 293 293 296 293 292 293 293 296 299 297 295 295 296 295 295 294 294 294 294 294 292 291 290 290 290 291 292 292 292 292 291 291 290 290 289 288 288 288 288 287 286 286
294 294 294 293 293 293 294 295 294 294 293 293 293 294 293 293 292 292 293 295 296 294 294 294 294 294 294 294 294 294 293 291 290 289 288 287 287 288 290 291 291 292 292 290 289 290 289 289 289 288 287 287 286 286
292 294 294 294 294 295 294 294 293 293 293 293 293 293 293 293 293 294 296 294 294 293 293 294 294 293 293 293 292 290 289 289 288 288 287 288 288 288 288 288 289 290 290 289 289 289 288 288 288 288 287 287 286 286
293 295 295 293 294 293 294 294 294 294 293 293 293 293 294 294 294 295 294 293 293 292 291 291 291 291 291 290 289 288 288 289 289 289 289 289 290 291 291 289 288 288 287 288 288 288 288 288 288 287 287 286 286 285
293 294 293 293 292 293 294 294 294 294 294 294 293 293 293 294 293 293 293 293 291 291 291 290 289 288 287 288 288 288 288 289 289 288 288 288 288 287 287 288 288 287 287 287 286 286 287 287 286 285 285 283 283 283
294 295 293 294 294 294 294 294 294 293 293 294 293 294 294 294 293 293 291 290 289 287 287 287 287 288 288 287 287 287 288 286 285 285 284 285 285 286 287 287 286 286 286 285 284 284 284 284 284 284 283 282 282 281
294 293 293 293 294 294 293 293 294 295 294 295 295 294 294 293 293 290 282 282 284 285 286 284 285 286 284 284 285 285 283 283 282 281 283 284 285 285 285 285 285 285 284 284 284 283 283 283 283 283 282 281 281 280
293 293 292 292 292 292 293 292 293 293 294 294 294 294 294 294 293 284 280 279 280 280 280 280 280 281 282 282 282 282 281 280 280 281 281 282 283 283 283 284 284 283 283 283 283 283 282 282 282 282 281 280 279 278
Wind_Speed
16 19 28 28 28 29 27 27 26 24 23 20 18 16 13 10 8 7 7 6 5 2 6 9 10 11 8 4 3 2 3 2 2 3 3 4 3 4 5 8 7 8 6 4 5 5 11 4 12 5 14 17 19 15
16 16 18 22 25 29 25 27 25 25 24 23 22 20 18 15 12 9 7 7 7 5 5 5 10 17 15 18 8 3 4 4 5 3 3 3 3 2 2 8 14 5 7 7 9 7 20 24 25 16 24 20 18 20
6 11 15 18 24 25 26 24 26 25 24 23 24 23 22 19 17 15 9 8 3 2 5 8 11 21 19 19 16 7 3 6 6 7 4 3 5 3 4 4 5 6 13 12 16 18 23 24 25 22 21 18 18 18
5 4 5 9 15 20 26 30 28 26 25 24 24 23 23 21 21 19 17 13 8 2 2 5 17 17 13 15 19 21 20 19 14 5 3 4 3 6 5 9 10 6 9 12 21 23 22 20 19 22 22 19 13 15
4 3 2 3 5 12 18 23 27 29 29 27 26 26 24 23 21 20 23 24 20 6 3 3 4 15 16 17 18 21 19 12 7 3 3 4 3 3 7 8 7 6 15 10 17 21 19 25 22 25 16 10 15 13
6 4 2 2 3 2 5 14 21 25 28 31 32 29 28 25 20 15 2 20 33 21 2 3 4 5 18 20 19 20 20 11 10 4 3 4 3 5 4 12 9 14 13 15 17 26 26 24 19 17 15 14 12 14
5 6 5 2 3 3 2 2 10 18 22 23 27 28 25 24 26 7 4 3 10 22 3 3 3 2 7 10 10 10 18 8 5 4 4 3 3 5 3 11 22 18 19 23 23 17 14 15 12 12 8 15 20 17
9 7 8 8 5 5 8 9 6 4 8 15 16 17 21 17 13 3 5 5 14 7 4 3 3 3 3 2 2 5 2 2 2 2 1 1 1 2 5 16 19 20 19 18 13 12 11 10 13 13 17 16 13 12
14 10 8 7 5 6 5 8 10 11 12 14 18 22 16 3 3 6 9 9 5 4 3 2 3 2 3 2 1 2 2 1 2 3 3 3 4 7 10 15 16 17 15 11 10 10 11 12 13 14 15 16 13 10
16 13 10 10 7 6 6 9 11 15 19 13 5 4 2 3 14 10 4 3 4 2 2 2 2 3 4 1 1 1 1 2 2 4 4 4 9 19 19 18 14 8 7 7 5 7 10 11 13 15 15 13 8 5
17 15 13 11 10 9 9 9 15 17 7 2 2 2 6 10 3 2 2 1 2 3 3 2 5 1 1 2 2 2 1 2 3 3 4 3 4 9 9 3 5 5 5 6 8 10 13 13 14 14 12 7 2 4
19 17 16 13 12 11 12 14 15 1 1 4 9 8 4 1 2 2 3 3 3 3 4 3 2 1 2 2 2 3 2 3 6 3 2 4 3 2 1 1 2 5 9 11 12 13 18 19 19 12 12 5 4 7
18 17 18 16 15 15 15 17 8 7 12 5 4 2 2 2 4 4 6 3 4 2 1 1 2 2 2 3 1 2 4 5 3 3 3 3 3 6 1 4 7 12 9 10 16 22 23 22 21 15 12 10 9 9
19 19 17 16 16 15 15 14 12 6 1 1 2 3 4 4 4 2 2 2 2 2 3 3 2 1 1 1 2 3 4 3 4 5 5 1 5 4 5 5 7 10 5 7 12 18 19 17 18 17 13 14 10 7
17 16 16 15 15 15 13 13 12 2 2 2 1 3 5 1 5 3 2 3 2 1 1 2 2 2 1 2 3 3 4 6 6 4 2 6 4 5 6 8 10 2 5 7 17 15 15 18 11 13 14 10 9 8
17 14 10 16 16 15 13 13 6 2 2 1 2 2 2 1 2 1 1 1 2 3 1 1 1 2 4 4 6 8 5 7 4 3 6 7 7 5 6 9 5 8 9 13 19 18 17 17 12 12 11 12 10 12
16 4 14 18 15 13 12 3 2 2 1 2 3 1 1 2 2 2 2 4 6 3 2 2 3 8 3 5 7 5 6 7 6 6 7 9 11 10 10 10 11 14 16 18 19 18 17 17 17 14 8 10 13 13
1 10 19 20 18 14 3 1 2 2 3 4 3 3 3 3 3 3 2 4 3 3 2 4 4 8 6 11 11 8 7 8 8 9 10 12 11 18 17 12 21 23 20 19 20 14 14 17 15 10 11 11 13 10
12 17 22 24 18 5 4 1 2 2 5 1 3 1 4 2 7 9 3 6 10 9 2 3 7 8 10 8 10 9 9 8 9 11 10 18 18 18 20 22 21 19 19 19 13 12 18 19 13 11 12 13 9 11
15 21 26 23 9 3 2 2 1 3 2 3 5 6 6 4 2 2 4 5 6 3 5 5 8 10 9 9 10 10 10 11 11 11 13 12 20 20 20 20 19 23 22 22 14 17 14 10 11 12 8 7 8 6
14 15 21 15 3 2 0 3 3 2 3 3 3 5 4 5 6 4 4 6 5 5 8 8 11 12 18 20 22 20 18 18 12 11 13 13 20 21 22 24 25 22 18 14 8 13 13 11 10 12 11 6 5 7
9 19 7 8 1 0 2 7 3 3 3 3 2 2 3 5 5 5 4 6 6 10 11 12 11 10 11 13 16 20 20 21 24 24 25 24 12 10 11 18 18 11 13 11 14 12 11 13 10 12 8 7 9 8
18 8 4 3 2 3 4 8 4 4 4 4 3 4 4 4 3 3 4 6 7 12 14 13 17 20 16 21 21 22 23 22 15 18 18 19 20 19 18 22 21 16 9 15 15 12 10 11 10 8 8 10 10 8
9 9 5 5 7 3 4 5 3 3 4 5 4 5 6 4 4 5 9 10 12 10 10 13 15 10 11 15 10 11 16 18 17 18 18 17 10 15 20 21 16 19 20 13 10 8 5 9 9 9 11 10 9 8
4 6 4 5 6 6 5 4 5 5 6 8 12 8 4 2 4 7 11 12 9 8 8 9 8 7 8 8 7 13 19 18 12 7 18 18 19 19 17 17 18 16 12 8 3 5 8 8 10 10 10 10 9 8
7 7 8 6 7 6 7 5 7 11 10 11 6 3 1 3 6 7 6 5 3 4 4 5 4 5 6 9 8 7 13 8 9 10 19 16 14 12 8 6 6 6 11 13 12 10 11 12 12 11 11 10 8 8
6 7 5 5 5 5 3 4 4 6 7 6 5 9 4 5 6 5 5 5 4 5 6 8 9 8 8 13 15 12 11 14 14 17 22 22 20 19 16 11 9 10 11 14 14 13 14 13 12 12 11 10 11 11
6 4 9 8 6 6 10 8 6 6 6 5 6 10 5 5 6 5 1 3 3 6 9 10 11 13 15 13 14 15 17 16 19 20 21 20 19 19 17 15 13 9 7 9 10 11 12 13 12 11 11 9 8 8
5 4 5 8 10 6 8 9 12 8 8 8 11 13 14 10 9 8 17 15 13 10 8 11 13 14 15 17 17 16 17 16 11 11 13 8 8 9 15 14 12 10 9 8 8 8 12 13 12 12 11 9 6 6
9 6 8 10 13 12 13 7 10 7 6 7 7 9 11 12 26 28 26 16 10 12 13 10 9 9 11 10 11 13 14 13 13 6 6 7 10 19 21 15 15 13 11 9 7 7 11 13 12 11 9 7 5 5
3 4 10 12 15 14 13 8 5 4 5 9 10 11 14 12 19 20 10 8 9 9 9 9 10 7 7 7 6 6 5 4 6 8 10 13 13 12 9 4 2 2 3 5 4 4 5 5 5 6 4 2 2 2
4 8 9 14 13 9 2 3 4 7 9 8 11 8 10 6 6 2 3 4 3 6 3 1 3 4 6 6 4 1 1 4 6 7 8 8 7 6 5 5 5 6 6 6 5 4 3 2 3 2 1 2 2 3
10 10 12 11 10 11 9 5 5 5 8 11 10 9 9 6 4 3 4 5 5 6 6 6 5 6 4 3 2 2 4 6 8 8 7 7 7 7 7 7 5 4 4 4 4 4 3 2 2 0 3 5 6 6
Wind_Direction
216 219 216 223 223 222 225 226 227 227 231 233 241 253 258 264 272 259 276 242 248 225 274 263 256 262 270 253 255 240 354 225 68 167 194 228 229 246 272 270 282 297 298 258 238 244 280 268 337 331 310 311 333 326
209 213 217 215 219 221 222 226 226 229 231 233 237 241 248 250 251 251 269 266 252 238 291 325 281 267 273 275 300 277 221 268 176 181 201 230 252 219 265 275 266 256 218 265 259 271 289 303 302 323 319 323 323 305
158 202 215 218 220 223 227 229 227 226 229 232 236 238 241 242 243 238 240 259 245 29 277 264 248 265 267 264 263 265 261 232 236 231 279 201 230 210 231 239 242 253 259 261 289 277 284 301 301 301 299 317 312 309
134 142 180 219 223 222 225 226 229 230 229 231 232 235 236 237 240 238 229 240 215 120 195 255 270 258 260 254 243 241 256 267 263 272 233 196 188 194 217 249 257 246 297 271 275 275 290 284 291 301 298 307 330 323
151 137 145 194 227 231 230 228 227 233 237 235 232 232 233 235 236 239 244 245 236 202 232 246 263 250 249 242 241 244 238 237 243 223 223 236 207 201 241 263 242 231 256 257 271 289 285 284 293 290 326 329 329 314
191 196 214 231 229 234 227 233 232 232 234 236 232 231 233 230 227 222 267 244 233 219 265 311 300 249 248 244 240 246 235 235 233 227 210 235 193 168 243 268 268 266 272 270 287 291 285 286 327 344 346 325 326 336
171 191 199 125 125 110 105 199 223 227 229 230 231 229 228 225 214 195 189 170 197 198 111 289 269 344 294 271 259 261 249 239 226 227 212 182 212 192 230 267 280 284 275 278 273 291 341 316 320 309 310 350 337 354
182 178 185 178 155 103 84 76 81 149 208 218 217 218 218 209 177 134 104 156 163 142 116 212 265 323 216 214 248 340 334 7 293 238 31 185 291 177 247 256 275 280 279 287 347 327 316 354 344 343 349 338 338 4
195 188 190 190 190 199 171 124 106 104 118 128 137 135 121 97 116 133 130 113 94 125 171 189 208 189 199 126 101 358 36 327 302 245 202 164 212 228 248 270 273 292 310 343 325 346 353 353 337 338 335 335 340 357
197 195 186 172 155 141 160 161 145 138 126 110 81 72 66 93 129 113 39 31 16 5 72 218 248 211 213 134 83 321 53 242 249 243 229 213 250 262 272 273 284 17 12 4 14 0 357 339 333 333 329 330 350 0
193 193 186 183 171 156 139 142 154 144 127 78 80 77 105 147 125 78 124 231 153 236 192 227 216 188 151 132 176 214 252 223 256 252 233 241 243 244 264 322 35 34 21 6 9 350 330 331 324 324 323 323 4 313
188 193 194 189 180 169 157 146 145 142 56 93 107 109 119 123 69 217 186 177 223 248 164 174 190 206 55 304 182 176 248 220 252 350 275 252 259 229 45 299 330 3 351 347 347 329 320 312 313 317 314 285 262 264
185 192 185 187 180 171 164 161 154 131 115 95 62 108 175 124 190 220 190 199 192 80 73 27 68 57 77 40 240 256 240 237 340 235 244 247 224 227 351 13 3 351 33 2 328 311 304 301 300 304 297 282 282 271
181 173 173 177 181 177 174 172 162 145 59 58 149 175 213 169 246 204 273 71 79 102 92 114 104 99 130 210 226 256 246 266 255 239 242 279 45 55 11 6 319 322 7 308 298 296 291 282 276 287 275 273 260 254
169 170 174 180 180 176 175 168 152 116 112 126 184 223 210 234 68 51 19 112 114 137 109 116 95 352 136 277 236 276 252 239 227 244 317 21 43 25 359 330 318 278 270 303 311 303 296 292 272 276 272 250 247 255
159 156 170 174 170 166 161 151 133 88 49 124 227 248 95 46 123 92 42 47 206 99 80 0 131 218 224 226 210 217 240 238 269 6 351 339 331 337 341 317 278 290 288 298 305 299 298 297 268 271 271 242 227 243
162 152 175 172 165 154 146 133 111 60 162 192 214 325 0 64 38 103 153 214 128 143 198 185 225 226 233 224 222 225 252 284 321 339 326 317 313 308 317 307 304 307 299 301 296 298 300 301 299 275 242 221 232 237
120 172 177 169 153 146 110 90 107 187 239 223 223 172 206 229 224 185 213 260 165 212 226 233 256 232 237 245 251 277 301 314 312 310 306 302 304 305 302 310 305 296 292 289 289 291 299 295 283 256 228 229 220 213
164 161 161 151 150 131 141 227 220 245 222 218 236 239 232 236 210 238 227 224 218 235 258 235 234 238 239 258 274 284 286 288 294 297 298 300 300 298 293 292 288 286 288 287 285 294 295 282 257 238 220 208 204 206
165 163 157 157 154 121 125 161 232 272 259 200 199 226 227 223 237 196 223 231 231 217 220 229 243 253 268 274 272 282 293 297 298 295 291 294 296 295 291 289 288 289 289 290 306 296 284 260 231 229 233 224 205 201
136 167 171 175 208 316 305 161 216 247 263 244 220 220 233 219 225 204 230 199 224 228 238 239 251 254 259 267 273 277 279 280 280 284 289 290 291 292 289 286 285 284 284 282 273 279 237 235 213 207 221 218 205 209
133 152 139 196 137 209 269 203 233 181 221 236 234 226 253 232 231 220 227 226 238 239 240 250 262 270 270 269 274 279 282 292 291 288 287 288 288 290 291 293 298 295 291 273 270 255 233 214 214 185 193 208 211 209
147 135 121 130 177 220 248 200 214 203 216 196 201 222 222 216 227 221 242 232 241 242 252 260 265 268 273 281 282 280 280 281 282 286 288 288 288 289 294 293 289 280 281 277 252 236 207 185 191 197 209 212 210 213
143 164 175 198 204 215 151 197 212 222 218 225 228 238 242 229 241 246 259 254 260 263 259 262 267 270 270 267 266 271 277 285 297 292 292 300 294 288 294 290 277 278 272 263 222 197 188 198 197 202 209 204 210 226
169 191 206 200 196 199 196 193 197 216 228 221 242 251 242 203 239 258 266 267 268 269 266 269 275 274 272 275 273 275 285 299 296 299 298 301 295 296 295 290 286 274 242 204 174 209 209 212 208 211 208 208 224 222
211 188 199 209 183 199 193 216 213 222 236 238 243 246 212 251 243 250 254 265 253 254 235 234 240 266 264 263 280 284 300 313 305 290 297 299 289 301 302 303 298 256 240 235 229 213 206 208 204 209 213 216 222 223
219 200 195 227 215 187 232 234 260 241 228 227 228 232 237 232 236 249 262 266 283 281 290 267 257 277 288 290 290 297 312 307 294 289 294 292 288 284 287 290 293 283 277 243 216 213 211 208 209 213 217 213 209 213
230 233 205 196 223 221 233 236 232 230 232 242 245 239 232 224 243 250 330 13 293 298 285 280 281 284 286 286 297 303 304 303 301 304 303 300 296 281 273 274 266 266 254 241 226 234 229 227 213 208 204 206 214 221
228 219 211 232 219 223 239 245 240 240 247 253 249 247 250 256 273 281 283 289 281 252 258 268 281 285 284 289 291 294 296 290 279 292 301 303 306 299 281 260 255 249 240 235 242 242 218 214 207 202 198 199 191 173
229 201 232 233 233 242 241 237 258 256 241 244 272 280 275 269 269 274 276 272 243 247 260 264 280 291 286 290 297 298 296 293 260 282 303 302 304 309 311 297 277 268 253 235 207 205 201 183 173 173 178 177 195 211
233 214 238 240 247 253 257 255 240 237 256 260 255 257 261 272 280 274 270 255 254 266 272 273 274 258 271 285 299 314 321 37 357 333 318 309 316 320 328 305 249 193 161 145 136 141 141 139 152 149 155 187 210 181
214 232 243 254 259 257 180 249 248 248 250 249 248 240 254 250 259 128 31 351 282 259 257 38 324 305 356 332 309 332 333 351 345 353 2 14 21 24 36 65 82 94 97 90 83 94 94 52 70 105 132 167 148 141
240 251 259 266 271 272 257 229 242 254 243 245 251 249 248 235 240 95 73 35 18 18 10 339 310 312 315 319 19 66 59 52 44 43 39 38 42 52 64 60 56 68 69 74 74 59 54 29 342 297 140 114 122 112